Starlink 35409

operational
NORAD ID: 66196 Int'l Des: 2025-243 Owner: SPXS Country: US Constellation: starlink
LEOCIRCULAR

Starlink 35409について

説明を読み込み中...

リアルタイム位置

3D地球を読み込み中...

次回通過

高度履歴

Altitude vs Time

uPlot chart will show altitude changes over time

軌道要素

1 66196U 25243V 25350.93322316 .00038743 00000-0 13121-2 0 9993
2 66196 53.1594 269.6316 0001329 98.9889 261.1263 15.30231385 7982
Epoch: Dec 16, 2025 • Age: 6 hours

現在のステータス

高度 477.2 km
速度 7.63 km/s
衛星直下点 -6.15°S, 108.24°E
打ち上げ日 Oct 26, 2025
運用期間 0.1 years
タイプ internet

技術仕様

分類 Payload
質量 575.00 kg
乾燥質量 530.00 kg
総質量 575.00 kg
長さ 0.30 m
直径 4.10 m
スパン 29.00 m
形状 Box + pan
製造者 SPXS
バスタイプ Starlink V2MO
フェーズステータス In Orbit
所有者/国 SPXS/US

大規模コンステレーション

Loading constellations...